Find Starlink 32743

NORAD ID: 62480 Int'l Des: 2024-254 Owner: SPXS Country: US Constellation: starlink operational
LEOCIRCULAR

Current View

Loading 3D Globe...

About Starlink 32743

Starlink 32743 (NORAD 62480) is a starlink constellation satellite (v2 mini) launched Dec 31, 2024 by SPXS of US. It operates in LEO, CIRCULAR orbit with a mass of 730.00 kg.

About Starlink 32743

Description loading...

Upcoming Passes

Passes for default location (London). Set your location on the main map for personalized predictions.

Altitude History

Loading altitude history...

Two-Line Element Set

1 62480U 24254U 26163.79480008 .00023126 00000-0 84711-3 0 9999
2 62480 42.9995 198.7846 0001561 279.5391 80.5285 15.27586329 82200
Epoch: Jun 12, 2026 • Age: 14 hours

Current Status

Altitude 492.3 km
Velocity 7.62 km/s
Sub-Earth Point -36.02°S, 108.89°E
Launch Date Dec 31, 2024
Age 1.4 years
Type internet

Technical Details

Classification Payload
Mass 730.00 kg
Dry Mass 700.00 kg
Total Mass 730.00 kg
Length 0.30 m
Diameter 4.10 m
Span 29.00 m
Shape Box + pan
Manufacturer SPXS
Bus Type Starlink V2M
Phase Status In Orbit
Owner/State SPXS/US

Most Searched